• en Suisse
  • Liste des pays
  • À 7 jours
  • Température de l'eau
  • Carte satellitaire
  • Carte météo
  • Widgets météo
  • user-avatar
    Se connecter

    Météo par heure à Barra

    Ce jour, 22 Octobre, Lundi

    Heure Température Précipitation Vent Pression Humidité
    00:00 +23°C° 0 mm 2 m/s 747 mmHg 88%
    01:00 +23°C° 0 mm 2 m/s 747 mmHg 89%
    02:00 +24°C° 0 mm 2 m/s 747 mmHg 88%
    03:00 +24°C° 0 mm 2 m/s 747 mmHg 86%
    04:00 +24°C° 0 mm 2 m/s 747 mmHg 88%
    05:00 +24°C° 0 mm 2 m/s 747 mmHg 85%
    06:00 +25°C° 0 mm 2 m/s 748 mmHg 83%
    07:00 +25°C° 0 mm 1 m/s 748 mmHg 80%
    08:00 +28°C° 0 mm 2 m/s 748 mmHg 67%
    09:00 +31°C° 0 mm 2 m/s 748 mmHg 54%
    10:00 +35°C° 0 mm 2 m/s 749 mmHg 44%
    11:00 +36°C° 0 mm 2 m/s 748 mmHg 41%
    12:00 +36°C° 0 mm 3 m/s 748 mmHg 39%
    13:00 +37°C° 0 mm 3 m/s 747 mmHg 36%
    14:00 +36°C° 0 mm 3 m/s 747 mmHg 41%
    15:00 +35°C° 0 mm 3 m/s 746 mmHg 46%
    16:00 +33°C° 0 mm 4 m/s 746 mmHg 51%
    17:00 +30°C° 0 mm 3 m/s 746 mmHg 60%
    18:00 +28°C° 0 mm 3 m/s 747 mmHg 70%
    19:00 +26°C° 0 mm 2 m/s 747 mmHg 79%
    20:00 +26°C° 0 mm 2 m/s 747 mmHg 84%
    21:00 +25°C° 0 mm 2 m/s 748 mmHg 88%
    22:00 +24°C° 0 mm 2 m/s 748 mmHg 93%
    23:00 +25°C° 0 mm 2 m/s 748 mmHg 91%

    Demain, 23 Octobre, Mardi

    Heure Température Précipitation Vent Pression Humidité
    00:00 +25°C° 0 mm 2 m/s 748 mmHg 89%
    01:00 +25°C° 0 mm 2 m/s 748 mmHg 88%
    02:00 +25°C° 0 mm 2 m/s 748 mmHg 89%
    03:00 +25°C° 0 mm 2 m/s 748 mmHg 90%
    04:00 +24°C° 0 mm 2 m/s 747 mmHg 91%
    05:00 +25°C° 0 mm 2 m/s 748 mmHg 89%
    06:00 +25°C° 0 mm 2 m/s 748 mmHg 88%
    07:00 +26°C° 0 mm 2 m/s 749 mmHg 86%
    08:00 +27°C° 0 mm 2 m/s 749 mmHg 80%
    09:00 +28°C° 0 mm 2 m/s 749 mmHg 74%
    10:00 +29°C° 0 mm 2 m/s 749 mmHg 68%
    11:00 +31°C° 0 mm 2 m/s 749 mmHg 60%
    12:00 +34°C° 0 mm 2 m/s 748 mmHg 52%
    13:00 +35°C° 0 mm 2 m/s 748 mmHg 44%
    14:00 +35°C° 0 mm 3 m/s 748 mmHg 46%
    15:00 +34°C° 0 mm 3 m/s 747 mmHg 48%
    16:00 +34°C° 0 mm 3 m/s 747 mmHg 50%
    17:00 +30°C° 0 mm 3 m/s 747 mmHg 61%
    18:00 +28°C° 0 mm 3 m/s 748 mmHg 72%
    19:00 +26°C° 0 mm 2 m/s 748 mmHg 83%
    20:00 +26°C° 0 mm 2 m/s 749 mmHg 85%
    21:00 +25°C° 0 mm 2 m/s 749 mmHg 88%
    22:00 +25°C° 0 mm 2 m/s 750 mmHg 90%
    23:00 +25°C° 0 mm 2 m/s 750 mmHg 89%

    Après-demain, 24 Octobre, Mercredi

    Heure Température Précipitation Vent Pression Humidité
    00:00 +25°C° 0 mm 2 m/s 750 mmHg 88%
    01:00 +25°C° 0 mm 2 m/s 749 mmHg 87%
    02:00 +25°C° 0 mm 2 m/s 749 mmHg 88%
    03:00 +25°C° 0 mm 2 m/s 749 mmHg 90%
    04:00 +24°C° 0 mm 1 m/s 749 mmHg 91%
    05:00 +25°C° 0 mm 1 m/s 749 mmHg 88%
    06:00 +25°C° 0 mm 1 m/s 750 mmHg 85%
    07:00 +26°C° 0 mm 1 m/s 750 mmHg 82%
    08:00 +28°C° 0 mm 2 m/s 750 mmHg 71%
    09:00 +30°C° 0 mm 2 m/s 751 mmHg 60%
    10:00 +32°C° 0 mm 2 m/s 751 mmHg 50%
    11:00 +34°C° 0 mm 3 m/s 750 mmHg 46%
    12:00 +34°C° 0 mm 3 m/s 750 mmHg 42%
    13:00 +35°C° 0 mm 3 m/s 749 mmHg 38%
    14:00 +35°C° 0 mm 3 m/s 749 mmHg 40%
    15:00 +34°C° 0 mm 4 m/s 748 mmHg 41%
    16:00 +33°C° 0 mm 4 m/s 748 mmHg 43%
    17:00 +30°C° 0 mm 3 m/s 748 mmHg 53%
    18:00 +28°C° 0 mm 3 m/s 749 mmHg 63%
    19:00 +26°C° 0 mm 2 m/s 749 mmHg 73%
    20:00 +25°C° 0 mm 2 m/s 750 mmHg 78%
    21:00 +24°C° 0 mm 2 m/s 750 mmHg 83%
    22:00 +24°C° 0 mm 2 m/s 751 mmHg 87%
    23:00 +23°C° 0 mm 2 m/s 751 mmHg 90%

    25 Octobre, Jeudi

    Heure Température Précipitation Vent Pression Humidité
    00:00 +23°C° 0 mm 2 m/s 750 mmHg 92%
    01:00 +23°C° 0 mm 2 m/s 750 mmHg 94%
    02:00 +21°C° 0 mm 2 m/s 750 mmHg 94%
    03:00 +21°C° 0 mm 2 m/s 750 mmHg 94%
    04:00 +21°C° 0 mm 2 m/s 750 mmHg 95%
    05:00 +23°C° 0 mm 2 m/s 750 mmHg 90%
    06:00 +23°C° 0 mm 2 m/s 751 mmHg 85%
    07:00 +24°C° 0 mm 2 m/s 751 mmHg 80%
    08:00 +27°C° 0 mm 3 m/s 751 mmHg 67%
    09:00 +29°C° 0 mm 3 m/s 752 mmHg 54%
    10:00 +33°C° 0 mm 4 m/s 752 mmHg 41%
    11:00 +33°C° 0 mm 4 m/s 751 mmHg 38%
    12:00 +34°C° 0 mm 5 m/s 751 mmHg 35%
    13:00 +34°C° 0 mm 5 m/s 750 mmHg 32%
    14:00 +33°C° 0 mm 5 m/s 750 mmHg 35%
    15:00 +33°C° 0 mm 5 m/s 749 mmHg 38%
    16:00 +32°C° 0 mm 4 m/s 749 mmHg 40%
    17:00 +29°C° 0 mm 4 m/s 749 mmHg 51%
    18:00 +26°C° 0 mm 3 m/s 750 mmHg 62%
    19:00 +24°C° 0 mm 3 m/s 750 mmHg 74%
    20:00 +24°C° 0 mm 3 m/s 751 mmHg 79%
    21:00 +22°C° 0 mm 3 m/s 751 mmHg 84%
    22:00 +22°C° 0 mm 3 m/s 752 mmHg 89%
    23:00 +22°C° 0 mm 3 m/s 751 mmHg 89%

    26 Octobre, Vendredi

    Heure Température Précipitation Vent Pression Humidité
    00:00 +22°C° 0 mm 3 m/s 751 mmHg 89%
    01:00 +22°C° 0 mm 3 m/s 751 mmHg 89%
    02:00 +22°C° 0 mm 3 m/s 751 mmHg 90%
    03:00 +22°C° 0 mm 3 m/s 750 mmHg 90%
    04:00 +21°C° 0 mm 3 m/s 750 mmHg 91%
    05:00 +23°C° 0 mm 2 m/s 751 mmHg 88%
    06:00 +24°C° 0 mm 2 m/s 751 mmHg 85%
    07:00 +24°C° 0 mm 2 m/s 751 mmHg 82%
    08:00 +27°C° 0 mm 2 m/s 751 mmHg 68%
    09:00 +30°C° 0 mm 2 m/s 751 mmHg 54%
    10:00 +33°C° 0 mm 3 m/s 751 mmHg 40%
    11:00 +34°C° 0 mm 3 m/s 751 mmHg 37%
    12:00 +35°C° 0 mm 3 m/s 750 mmHg 34%
    13:00 +36°C° 0 mm 4 m/s 749 mmHg 31%
    14:00 +35°C° 0 mm 3 m/s 749 mmHg 33%
    15:00 +34°C° 0 mm 3 m/s 749 mmHg 35%
    16:00 +33°C° 0 mm 3 m/s 748 mmHg 38%
    17:00 +30°C° 0 mm 2 m/s 749 mmHg 49%
    18:00 +27°C° 0 mm 2 m/s 749 mmHg 60%
    19:00 +25°C° 0 mm 1 m/s 750 mmHg 72%
    20:00 +24°C° 0 mm 1 m/s 750 mmHg 76%
    21:00 +24°C° 0 mm 1 m/s 750 mmHg 80%
    22:00 +23°C° 0 mm 1 m/s 750 mmHg 84%
    23:00 +23°C° 0 mm 1 m/s 750 mmHg 84%

    27 Octobre, Samedi

    Heure Température Précipitation Vent Pression Humidité
    00:00 +22°C° 0 mm 1 m/s 749 mmHg 83%
    01:00 +22°C° 0 mm 1 m/s 749 mmHg 82%
    02:00 +22°C° 0 mm 1 m/s 749 mmHg 80%
    03:00 +22°C° 0 mm 1 m/s 748 mmHg 77%
    04:00 +22°C° 0 mm 1 m/s 748 mmHg 75%
    05:00 +23°C° 0 mm 1 m/s 748 mmHg 68%
    06:00 +24°C° 0 mm 1 m/s 749 mmHg 61%
    07:00 +23°C° 0 mm 0 m/s 749 mmHg 55%
    08:00 +28°C° 0 mm 1 m/s 749 mmHg 47%
    09:00 +31°C° 0 mm 1 m/s 749 mmHg 40%
    10:00 +34°C° 0 mm 1 m/s 749 mmHg 33%
    11:00 +36°C° 0 mm 2 m/s 748 mmHg 31%
    12:00 +36°C° 0 mm 2 m/s 748 mmHg 29%
    13:00 +37°C° 0 mm 3 m/s 748 mmHg 27%
    14:00 +37°C° 0 mm 3 m/s 747 mmHg 29%
    15:00 +36°C° 0 mm 3 m/s 747 mmHg 30%
    16:00 +35°C° 0 mm 2 m/s 747 mmHg 32%
    17:00 +31°C° 0 mm 2 m/s 747 mmHg 44%
    18:00 +29°C° 0 mm 2 m/s 747 mmHg 56%
    19:00 +26°C° 0 mm 2 m/s 748 mmHg 69%
    20:00 +25°C° 0 mm 2 m/s 748 mmHg 73%
    21:00 +24°C° 0 mm 2 m/s 748 mmHg 78%
    22:00 +23°C° 0 mm 2 m/s 749 mmHg 83%
    23:00 +23°C° 0 mm 2 m/s 748 mmHg 82%

    28 Octobre, Dimanche

    Heure Température Précipitation Vent Pression Humidité
    00:00 +23°C° 0 mm 2 m/s 748 mmHg 82%
    01:00 +21°C° 0 mm 2 m/s 747 mmHg 82%
    02:00 +21°C° 0 mm 2 m/s 747 mmHg 82%
    03:00 +21°C° 0 mm 2 m/s 747 mmHg 82%
    04:00 +21°C° 0 mm 2 m/s 747 mmHg 82%
    05:00 +23°C° 0 mm 2 m/s 747 mmHg 76%
    06:00 +24°C° 0 mm 1 m/s 748 mmHg 71%
    07:00 +25°C° 0 mm 1 m/s 748 mmHg 66%
    08:00 +28°C° 0 mm 2 m/s 748 mmHg 56%
    09:00 +31°C° 0 mm 2 m/s 748 mmHg 47%
    10:00 +34°C° 0 mm 2 m/s 748 mmHg 37%
    11:00 +35°C° 0 mm 2 m/s 747 mmHg 35%
    12:00 +37°C° 0 mm 3 m/s 747 mmHg 33%
    13:00 +38°C° 0 mm 3 m/s 746 mmHg 30%
    14:00 +37°C° 0 mm 3 m/s 746 mmHg 35%
    15:00 +36°C° 0 mm 4 m/s 746 mmHg 39%
    16:00 +34°C° 0 mm 4 m/s 745 mmHg 43%
    17:00 +32°C° 0 mm 4 m/s 746 mmHg 54%
    18:00 +29°C° 0 mm 3 m/s 746 mmHg 65%
    19:00 +26°C° 0 mm 3 m/s 747 mmHg 75%
    20:00 +25°C° 0 mm 3 m/s 747 mmHg 80%
    21:00 +25°C° 0 mm 3 m/s 747 mmHg 85%
    22:00 +24°C° 0 mm 2 m/s 747 mmHg 89%
    23:00 +24°C° 0 mm 2 m/s 747 mmHg 90%
    Voir plus